This is the latest recevied weather packets stored in our database for station/object KC8QDR-1. If no packets are shown the sender has not sent any weather packets the latest 10 day(s).
| Time | Temp. | Humidity | Pressure | Rain* | Wind** | Luminosity | Snow |
|---|---|---|---|---|---|---|---|
| 1777622325 | 5° C | 95% | 1017.2 hPa | 0 mm | 0 m/s | - | - |
| 1777621725 | 5° C | 95% | 1017 hPa | 0 mm | 0 m/s | - | - |
| 1777621125 | 5° C | 95% | 1017.1 hPa | 0 mm | 0 m/s | - | - |
| 1777620525 | 5° C | 95% | 1017.2 hPa | 0 mm | 0 m/s | - | - |
| 1777619925 | 5° C | 96% | 1016.7 hPa | 0 mm | 0 m/s | - | - |
| 1777619324 | 4.44° C | 96% | 1016.4 hPa | 0 mm | 0 m/s | - | - |
| 1777618802 | 4.44° C | 96% | 1017.1 hPa | 0 mm | 0 m/s | - | - |
| 1777618726 | 4.44° C | 96% | 1017.1 hPa | 0 mm | 0 m/s | - | - |
| 1777618126 | 4.44° C | 96% | 1017.3 hPa | 0 mm | 0 m/s | - | - |
| 1777616924 | 3.89° C | 96% | 1017.2 hPa | 0 mm | 0 m/s | - | - |
| 1777616455 | 3.89° C | 96% | 1017.3 hPa | 0 mm | 0 m/s | - | - |
| 1777616325 | 3.89° C | 96% | 1017.3 hPa | 0 mm | 0 m/s | - | - |
| 1777615724 | 3.33° C | 97% | 1017.5 hPa | 0 mm | 0 m/s | - | - |
| 1777615125 | 3.33° C | 96% | 1017.8 hPa | 0 mm | 0 m/s | - | - |
| 1777614525 | 3.33° C | 96% | 1017.9 hPa | 0 mm | 0 m/s | - | - |
| 1777614016 | 3.33° C | 96% | 1017.8 hPa | 0 mm | 0 m/s | - | - |
| 1777613925 | 3.33° C | 96% | 1017.8 hPa | 0 mm | 0 m/s | - | - |
| 1777613326 | 2.78° C | 95% | 1017.9 hPa | 0 mm | 0 m/s | - | - |
| 1777612856 | 2.78° C | 95% | 1017.8 hPa | 0 mm | 0 m/s | - | - |
| 1777612725 | 2.78° C | 95% | 1017.8 hPa | 0 mm | 0 m/s | - | - |
| 1777612125 | 3.33° C | 95% | 1017.8 hPa | 0 mm | 0 m/s | - | - |
| 1777610924 | 3.89° C | 94% | 1018 hPa | 0 mm | 0 m/s | - | - |
| 1777610412 | 3.89° C | 95% | 1018 hPa | 0 mm | 0 m/s | - | - |
| 1777610325 | 3.89° C | 95% | 1018 hPa | 0 mm | 0 m/s | - | - |
| 1777609725 | 3.89° C | 95% | 1018.1 hPa | 0 mm | 0 m/s | - | - |
* Rain latest hour (hover to see other rain measurements)
** Current wind speed in m/s (hover to see current wind gust speed)